Location: Kiltepe
(36.4752°N, 30.0120°E)
Time: 16:57:50
(UTC+00:00)

Cosmos 1269 Rocket - Pass Details

Date: 03 August 2024
Orbit: 770 x 776 km, 74.1° (Epoch: 18 September)

Event Time Altitude Azimuth Distance (km) Brightness Sun altitude
Rises 17:38:50 0° 340° (NNW) 3,261 8.1 -7.3°
Reaches altitude 10° 17:41:14 10° 340° (NNW) 2,330 7.3 -7.7°
Maximum altitude 17:46:31 79° 254° (WSW) 792 4.2 -8.6°
Drops below altitude 10° 17:51:46 10° 168° (SSE) 2,312 6.1 -9.5°
Enters shadow 17:53:59 - 167° (SSE) 3,173 6.8 -9.9°
